Location: Columbia
(38.9520°N, 92.3340°W)
Time: 22:44:12
(UTC-05:00)

Iridium 52 - Visible Passes

Search period start: 26 July 2016 00:00
Search period end: 05 August 2016 00:00
Orbit: 776 x 779 km, 86.4° (Epoch: 26 July)

Date Brightness Start Highest point End Pass type
(mag) Time Alt. Az. Time Alt. Az. Time Alt. Az.
26 Jul 7.0 01:24:49 10° NNW 01:28:31 41° NW 01:28:31 41° NW visible
27 Jul 6.8 00:51:11 10° N 00:55:01 50° N 00:55:01 50° N visible
28 Jul 7.2 00:17:52 10° NNE 00:21:30 36° NE 00:21:30 36° NE visible
28 Jul 8.0 01:59:29 10° NW 02:01:58 18° WNW 02:01:58 18° WNW visible
28 Jul 7.7 23:44:58 10° NNE 23:48:00 22° ENE 23:48:00 22° ENE visible
29 Jul 7.5 01:25:09 10° NNW 01:28:28 31° NW 01:28:28 31° NW visible
29 Jul 8.3 23:13:02 10° NE 23:14:30 12° ENE 23:14:30 12° ENE visible
30 Jul 7.0 00:51:19 10° N 00:54:59 45° NNW 00:54:59 45° NNW visible
31 Jul 6.9 00:17:48 10° N 00:21:29 44° NNE 00:21:29 44° NNE visible
31 Jul 8.4 02:00:34 10° NW 02:01:57 13° WNW 02:01:57 13° WNW visible
31 Jul 7.4 23:44:38 10° NNE 23:48:01 29° NE 23:48:01 29° NE visible
01 Aug 7.9 01:25:39 10° NNW 01:28:28 22° WNW 01:28:28 22° WNW visible
01 Aug 7.9 23:11:59 10° NNE 23:14:32 18° ENE 23:14:32 18° ENE visible
02 Aug 7.3 00:51:34 10° NNW 00:55:00 36° NW 00:55:00 36° NW visible
03 Aug 6.9 00:17:51 10° N 00:21:32 47° N 00:21:32 47° N visible
03 Aug 7.0 23:44:28 10° N 23:48:04 38° NE 23:48:04 38° NE visible
04 Aug 8.3 01:26:25 10° NW 01:28:32 16° WNW 01:28:32 16° WNW visible
04 Aug 7.6 23:11:28 10° NNE 23:14:36 24° ENE 23:14:36 24° ENE visible
